Weather in Isparta

Turkey     37°45′39″N   30°33′08″E
temp.,
°C
wind,
m/s
gust,
m/s
humid.,
%
clouds,
%
prec.,
mm/h
press.,
hPa
HPBL,
m
17 april, sat
sat1700:00+10sse3251100 0.0 101825
03:00+10se1153100 0.0 101710
06:00+11sse3346100 0.1 101630
09:00+13w2345100 0.1 1018153
12:00+16se3546100 0.5 1017566
15:00+19sse583778 0.5 1015809
18:00+17sse51041100 0.0 1015690
21:00+13sse5649100 0.0 1018103
18 april, sun
sun1800:00+12sse4448100 0.1 101861
03:00+12sse2251100 0.1 101832
06:00+12sse4448100 0.0 101841
09:00+16se1141100 0.0 1019102
12:00+21ssw2732100 0.0 10181397
15:00+20se3533100 0.0 1016645
18:00+20sse3432100 0.0 1016668
21:00+15se4341100 0.0 101741
19 april, mon
mon1900:00+13sse2238100 0.0 101716
03:00+13sse2237100 0.0 101616
06:00+12s2242100 0.0 101513
09:00+15sse4640100 0.0 1013238
12:00+20sse71131100 0.0 1011783
15:00+19se8133399 0.0 1009829
18:00+19sse7143793 0.0 1007965
21:00+15sse61449100 0.0 1007648
20 april, tue
tue2000:00+13ssw2266100 0.0 100835
03:00+10wnw2278100 0.0 100924
06:00+9w3373100 0.1 101039
09:00+11w23310 0.1 1012609
12:00+14w46260 0.0 10121579
15:00+17w57170 0.0 10112225
18:00+15wnw67230 0.0 10111723
21:00+10n11400 0.0 101412
21 april, wed
wed2100:00+8wnw12543 0.0 101515
03:00+7wnw22654 0.0 101613
06:00+5wnw22730 0.0 101714
09:00+9nw22564 0.0 1017449
12:00+13w343399 0.0 10171420
15:00+15wnw25284 0.0 10162006
18:00+15nw65265 0.0 10161660
21:00+10wnw22400 0.0 101915